Time,TemperatureF,DewpointF,PressureIn,WindDirection,WindDirectionDegrees,WindSpeedMPH,WindSpeedGustMPH,Humidity,HourlyPrecipIn,Conditions,Clouds,dailyrainin,SoftwareType,DateUTC
2013-03-18 00:00:00,39.6,37.7,30.20,WNW,288,0.0,0.0,93,0.00,,,0.00,Wunderground v.1.15,2013-03-18 04:00:00,
2013-03-18 00:05:00,39.6,37.7,30.20,NW,305,0.0,0.0,93,0.00,,,0.00,Wunderground v.1.15,2013-03-18 04:05:00,
2013-03-18 00:15:00,39.5,37.6,30.20,NW,305,0.0,0.0,93,0.00,,,0.00,Wunderground v.1.15,2013-03-18 04:15:00,
2013-03-18 00:20:00,39.4,37.8,30.20,NW,305,0.0,0.0,94,0.00,,,0.00,Wunderground v.1.15,2013-03-18 04:20:00,
2013-03-18 00:25:00,39.4,37.8,30.20,NW,305,0.0,0.0,94,0.00,,,0.00,Wunderground v.1.15,2013-03-18 04:25:00,
2013-03-18 00:30:00,39.3,37.7,30.20,East,82,0.0,0.0,94,0.00,,,0.00,Wunderground v.1.15,2013-03-18 04:30:00,
2013-03-18 00:35:00,39.3,37.7,30.20,East,82,0.0,0.0,94,0.00,,,0.00,Wunderground v.1.15,2013-03-18 04:35:00,
2013-03-18 00:40:00,39.2,37.6,30.19,North,351,0.0,0.0,94,0.00,,,0.01,Wunderground v.1.15,2013-03-18 04:40:00,
2013-03-18 00:45:00,39.2,37.6,30.19,NW,317,0.0,1.0,94,0.00,,,0.01,Wunderground v.1.15,2013-03-18 04:45:00,
2013-03-18 00:55:00,39.1,37.8,30.19,ENE,60,0.0,0.0,95,0.00,,,0.01,Wunderground v.1.15,2013-03-18 04:55:00,
2013-03-18 01:00:00,39.0,37.7,30.19,NE,54,0.0,0.0,95,0.00,,,0.01,Wunderground v.1.15,2013-03-18 05:00:00,
2013-03-18 01:05:00,39.0,37.7,30.18,NNE,26,0.0,0.0,95,0.00,,,0.01,Wunderground v.1.15,2013-03-18 05:05:00,
2013-03-18 01:15:00,38.9,37.6,30.18,NNE,13,0.0,1.0,95,0.00,,,0.01,Wunderground v.1.15,2013-03-18 05:15:00,
2013-03-18 01:25:00,38.9,37.6,30.19,West,263,0.0,0.0,95,0.00,,,0.01,Wunderground v.1.15,2013-03-18 05:25:00,
2013-03-18 01:30:00,38.9,37.6,30.19,West,263,0.0,0.0,95,0.00,,,0.01,Wunderground v.1.15,2013-03-18 05:30:00,
2013-03-18 01:35:00,38.8,37.5,30.19,West,263,0.0,0.0,95,0.00,,,0.01,Wunderground v.1.15,2013-03-18 05:35:00,
2013-03-18 01:40:00,38.8,37.5,30.19,West,267,0.0,0.0,95,0.00,,,0.01,Wunderground v.1.15,2013-03-18 05:40:00,
2013-03-18 01:50:00,38.8,37.5,30.19,NE,43,0.0,1.0,95,0.00,,,0.01,Wunderground v.1.15,2013-03-18 05:50:00,
2013-03-18 01:55:00,38.8,37.5,30.19,NW,318,0.0,1.0,95,0.00,,,0.01,Wunderground v.1.15,2013-03-18 05:55:00,
2013-03-18 02:00:00,38.8,37.5,30.19,NW,318,0.0,0.0,95,0.00,,,0.01,Wunderground v.1.15,2013-03-18 06:00:00,
2013-03-18 02:05:00,38.8,37.8,30.19,WNW,300,0.0,0.0,96,0.00,,,0.01,Wunderground v.1.15,2013-03-18 06:05:00,
2013-03-18 02:15:00,38.8,37.8,30.18,SW,236,0.0,0.0,96,0.00,,,0.01,Wunderground v.1.15,2013-03-18 06:15:00,
2013-03-18 02:20:00,38.9,37.9,30.18,SSE,157,0.0,0.0,96,0.00,,,0.01,Wunderground v.1.15,2013-03-18 06:20:00,
2013-03-18 02:25:00,38.8,37.8,30.18,East,80,0.0,0.0,96,0.00,,,0.01,Wunderground v.1.15,2013-03-18 06:25:00,
2013-03-18 02:35:00,38.8,37.8,30.18,East,82,0.0,0.0,96,0.00,,,0.01,Wunderground v.1.15,2013-03-18 06:35:00,
2013-03-18 02:40:00,38.8,37.8,30.18,East,82,0.0,0.0,96,0.00,,,0.01,Wunderground v.1.15,2013-03-18 06:40:00,
2013-03-18 02:45:00,38.8,37.8,30.18,East,82,0.0,0.0,96,0.00,,,0.01,Wunderground v.1.15,2013-03-18 06:45:00,
2013-03-18 02:50:00,38.8,37.8,30.18,NW,325,0.0,1.0,96,0.00,,,0.01,Wunderground v.1.15,2013-03-18 06:50:00,
2013-03-18 02:55:00,38.8,37.8,30.19,NW,318,0.0,1.0,96,0.00,,,0.01,Wunderground v.1.15,2013-03-18 06:55:00,
2013-03-18 03:05:00,38.9,37.9,30.19,ESE,103,0.0,1.0,96,0.00,,,0.01,Wunderground v.1.15,2013-03-18 07:05:00,
2013-03-18 03:15:00,38.8,37.8,30.19,ESE,103,0.0,0.0,96,0.00,,,0.01,Wunderground v.1.15,2013-03-18 07:15:00,
2013-03-18 03:20:00,38.8,37.8,30.19,ESE,105,0.0,0.0,96,0.00,,,0.01,Wunderground v.1.15,2013-03-18 07:20:00,
2013-03-18 03:25:00,38.8,37.8,30.18,ESE,105,0.0,0.0,96,0.00,,,0.01,Wunderground v.1.15,2013-03-18 07:25:00,
2013-03-18 03:30:00,38.8,37.8,30.18,ESE,105,0.0,0.0,96,0.00,,,0.01,Wunderground v.1.15,2013-03-18 07:30:00,
2013-03-18 03:40:00,38.7,37.7,30.18,WNW,284,0.0,0.0,96,0.00,,,0.01,Wunderground v.1.15,2013-03-18 07:40:00,
2013-03-18 03:45:00,38.6,37.6,30.18,SW,231,0.0,0.0,96,0.00,,,0.01,Wunderground v.1.15,2013-03-18 07:45:00,
2013-03-18 03:50:00,38.5,37.5,30.18,WNW,285,0.0,2.0,96,0.00,,,0.01,Wunderground v.1.15,2013-03-18 07:50:00,
2013-03-18 03:55:00,38.4,37.4,30.18,North,360,0.0,2.0,96,0.00,,,0.01,Wunderground v.1.15,2013-03-18 07:55:00,
2013-03-18 04:00:00,38.3,37.3,30.18,North,360,0.0,0.0,96,0.00,,,0.01,Wunderground v.1.15,2013-03-18 08:00:00,
2013-03-18 04:05:00,38.3,37.3,30.18,WNW,293,0.0,0.0,96,0.00,,,0.01,Wunderground v.1.15,2013-03-18 08:05:00,
2013-03-18 04:15:00,38.2,37.2,30.17,ENE,61,0.0,0.0,96,0.00,,,0.02,Wunderground v.1.15,2013-03-18 08:15:00,
2013-03-18 04:20:00,38.1,37.1,30.17,WNW,295,0.0,0.0,96,0.00,,,0.02,Wunderground v.1.15,2013-03-18 08:20:00,
2013-03-18 04:25:00,38.1,37.1,30.17,NNE,20,0.0,0.0,96,0.00,,,0.02,Wunderground v.1.15,2013-03-18 08:25:00,
2013-03-18 04:30:00,38.0,37.0,30.17,ESE,107,0.0,0.0,96,0.00,,,0.02,Wunderground v.1.15,2013-03-18 08:30:00,
2013-03-18 04:35:00,37.9,36.9,30.17,ESE,107,0.0,0.0,96,0.00,,,0.02,Wunderground v.1.15,2013-03-18 08:35:00,
2013-03-18 04:40:00,37.8,36.8,30.17,ESE,107,0.0,0.0,96,0.00,,,0.02,Wunderground v.1.15,2013-03-18 08:40:00,
2013-03-18 04:50:00,37.7,36.7,30.17,ESE,109,0.0,0.0,96,0.00,,,0.02,Wunderground v.1.15,2013-03-18 08:50:00,
2013-03-18 04:55:00,37.7,36.7,30.17,ESE,109,0.0,0.0,96,0.00,,,0.02,Wunderground v.1.15,2013-03-18 08:55:00,
2013-03-18 05:00:00,37.7,36.7,30.17,ESE,117,0.0,0.0,96,0.00,,,0.02,Wunderground v.1.15,2013-03-18 09:00:00,
2013-03-18 05:05:00,37.7,36.7,30.17,NW,313,0.0,0.0,96,0.00,,,0.02,Wunderground v.1.15,2013-03-18 09:05:00,
2013-03-18 05:15:00,37.6,36.6,30.18,ESE,112,0.0,1.0,96,0.00,,,0.02,Wunderground v.1.15,2013-03-18 09:15:00,
2013-03-18 05:25:00,37.6,36.6,30.18,SE,146,0.0,0.0,96,0.00,,,0.03,Wunderground v.1.15,2013-03-18 09:25:00,
2013-03-18 05:30:00,37.6,36.6,30.19,SW,227,0.0,0.0,96,0.00,,,0.03,Wunderground v.1.15,2013-03-18 09:30:00,
2013-03-18 05:35:00,37.5,36.5,30.19,NW,307,0.0,0.0,96,0.00,,,0.03,Wunderground v.1.15,2013-03-18 09:35:00,
2013-03-18 05:40:00,37.5,36.5,30.19,East,98,0.0,0.0,96,0.00,,,0.03,Wunderground v.1.15,2013-03-18 09:40:00,
2013-03-18 05:45:00,37.5,36.5,30.19,NW,306,0.0,0.0,96,0.00,,,0.03,Wunderground v.1.15,2013-03-18 09:45:00,
2013-03-18 05:55:00,37.4,36.4,30.19,NW,308,0.0,0.0,96,0.00,,,0.03,Wunderground v.1.15,2013-03-18 09:55:00,
2013-03-18 06:00:00,37.5,36.5,30.20,NW,325,0.0,0.0,96,0.00,,,0.03,Wunderground v.1.15,2013-03-18 10:00:00,
2013-03-18 06:05:00,37.4,36.4,30.20,East,80,0.0,0.0,96,0.00,,,0.03,Wunderground v.1.15,2013-03-18 10:05:00,
2013-03-18 06:15:00,37.4,36.4,30.21,East,101,0.0,0.0,96,0.00,,,0.03,Wunderground v.1.15,2013-03-18 10:15:00,
2013-03-18 06:20:00,37.4,36.4,30.20,NNW,329,0.0,1.0,96,0.00,,,0.03,Wunderground v.1.15,2013-03-18 10:20:00,
2013-03-18 06:30:00,37.4,36.4,30.21,East,90,0.0,0.0,96,0.00,,,0.03,Wunderground v.1.15,2013-03-18 10:30:00,
2013-03-18 06:35:00,37.4,36.6,30.21,East,82,0.0,0.0,97,0.00,,,0.04,Wunderground v.1.15,2013-03-18 10:35:00,
2013-03-18 06:40:00,37.4,36.6,30.21,WSW,242,0.0,0.0,97,0.00,,,0.04,Wunderground v.1.15,2013-03-18 10:40:00,
2013-03-18 06:45:00,37.4,36.4,30.21,ENE,68,0.0,0.0,96,0.00,,,0.04,Wunderground v.1.15,2013-03-18 10:45:00,
2013-03-18 06:50:00,37.4,36.6,30.21,NNW,338,0.0,0.0,97,0.00,,,0.04,Wunderground v.1.15,2013-03-18 10:50:00,
2013-03-18 07:00:00,37.4,36.6,30.21,NNW,330,0.0,0.0,97,0.00,,,0.04,Wunderground v.1.15,2013-03-18 11:00:00,
2013-03-18 07:05:00,37.4,36.6,30.21,NNW,343,0.0,0.0,97,0.00,,,0.04,Wunderground v.1.15,2013-03-18 11:05:00,
2013-03-18 07:15:00,37.4,36.6,30.21,NNW,342,0.0,0.0,97,0.00,,,0.04,Wunderground v.1.15,2013-03-18 11:15:00,
2013-03-18 07:20:00,37.5,36.7,30.22,NNW,342,0.0,0.0,97,0.00,,,0.04,Wunderground v.1.15,2013-03-18 11:20:00,
2013-03-18 07:25:00,37.5,36.7,30.22,NNW,342,0.0,1.0,97,0.00,,,0.04,Wunderground v.1.15,2013-03-18 11:25:00,
2013-03-18 07:35:00,37.5,36.7,30.22,NNW,329,0.0,0.0,97,0.00,,,0.04,Wunderground v.1.15,2013-03-18 11:35:00,
2013-03-18 07:40:00,37.4,36.6,30.22,NNW,329,0.0,0.0,97,0.00,,,0.04,Wunderground v.1.15,2013-03-18 11:40:00,
2013-03-18 07:45:00,37.4,36.6,30.22,NNW,329,0.0,0.0,97,0.00,,,0.04,Wunderground v.1.15,2013-03-18 11:45:00,
2013-03-18 07:50:00,37.4,36.6,30.22,NNW,338,0.0,0.0,97,0.00,,,0.04,Wunderground v.1.15,2013-03-18 11:50:00,
2013-03-18 07:55:00,37.3,36.5,30.22,NNW,341,0.0,0.0,97,0.00,,,0.04,Wunderground v.1.15,2013-03-18 11:55:00,
2013-03-18 08:00:00,37.3,36.5,30.21,NNW,341,0.0,0.0,97,0.00,,,0.04,Wunderground v.1.15,2013-03-18 12:00:00,
2013-03-18 08:05:00,37.3,36.5,30.20,WNW,301,0.0,0.0,97,0.00,,,0.04,Wunderground v.1.15,2013-03-18 12:05:00,
2013-03-18 08:15:00,37.2,36.4,30.21,WNW,282,0.0,1.0,97,0.00,,,0.04,Wunderground v.1.15,2013-03-18 12:15:00,
2013-03-18 08:20:00,37.1,36.3,30.22,WNW,282,0.0,1.0,97,0.00,,,0.04,Wunderground v.1.15,2013-03-18 12:20:00,
2013-03-18 08:25:00,37.1,36.3,30.22,WNW,284,0.0,1.0,97,0.00,,,0.04,Wunderground v.1.15,2013-03-18 12:25:00,
2013-03-18 08:30:00,37.2,36.4,30.22,NW,310,0.0,0.0,97,0.00,,,0.04,Wunderground v.1.15,2013-03-18 12:30:00,
2013-03-18 08:35:00,37.2,36.4,30.22,NW,310,0.0,0.0,97,0.00,,,0.04,Wunderground v.1.15,2013-03-18 12:35:00,
2013-03-18 08:45:00,37.2,36.4,30.21,NE,51,0.0,3.0,97,0.00,,,0.04,Wunderground v.1.15,2013-03-18 12:45:00,
2013-03-18 08:50:00,37.2,36.4,30.20,West,272,0.0,0.0,97,0.00,,,0.04,Wunderground v.1.15,2013-03-18 12:50:00,
2013-03-18 08:55:00,37.2,36.4,30.20,West,272,0.0,0.0,97,0.00,,,0.04,Wunderground v.1.15,2013-03-18 12:55:00,
2013-03-18 09:00:00,37.3,36.5,30.20,West,272,0.0,0.0,97,0.00,,,0.04,Wunderground v.1.15,2013-03-18 13:00:00,
2013-03-18 09:05:00,37.3,36.5,30.21,West,272,0.0,0.0,97,0.00,,,0.04,Wunderground v.1.15,2013-03-18 13:05:00,
2013-03-18 09:15:00,37.3,36.5,30.22,NNE,20,0.0,0.0,97,0.00,,,0.04,Wunderground v.1.15,2013-03-18 13:15:00,
2013-03-18 09:20:00,37.4,36.6,30.21,WSW,244,1.0,1.0,97,0.00,,,0.04,Wunderground v.1.15,2013-03-18 13:20:00,
2013-03-18 09:30:00,37.3,36.5,30.20,NW,325,0.0,1.0,97,0.00,,,0.04,Wunderground v.1.15,2013-03-18 13:30:00,
2013-03-18 09:35:00,37.3,36.5,30.21,NW,323,0.0,1.0,97,0.00,,,0.04,Wunderground v.1.15,2013-03-18 13:35:00,
2013-03-18 09:40:00,37.3,36.5,30.21,NW,323,0.0,0.0,97,0.00,,,0.04,Wunderground v.1.15,2013-03-18 13:40:00,
2013-03-18 09:50:00,37.4,36.6,30.21,NW,323,0.0,0.0,97,0.00,,,0.04,Wunderground v.1.15,2013-03-18 13:50:00,
2013-03-18 09:55:00,37.5,36.7,30.21,NW,323,0.0,0.0,97,0.00,,,0.04,Wunderground v.1.15,2013-03-18 13:55:00,
2013-03-18 10:00:00,37.5,36.7,30.21,NW,321,0.0,0.0,97,0.00,,,0.04,Wunderground v.1.15,2013-03-18 14:00:00,
2013-03-18 10:05:00,37.6,36.8,30.21,NW,321,0.0,2.0,97,0.00,,,0.04,Wunderground v.1.15,2013-03-18 14:05:00,
2013-03-18 10:15:00,37.7,36.9,30.20,NW,321,0.0,1.0,97,0.00,,,0.04,Wunderground v.1.15,2013-03-18 14:15:00,
2013-03-18 10:25:00,37.9,37.1,30.19,NW,321,0.0,0.0,97,0.00,,,0.04,Wunderground v.1.15,2013-03-18 14:25:00,
2013-03-18 10:30:00,38.0,37.2,30.18,WNW,288,0.0,0.0,97,0.00,,,0.04,Wunderground v.1.15,2013-03-18 14:30:00,
2013-03-18 10:35:00,38.3,37.5,30.18,NNW,331,0.0,1.0,97,0.00,,,0.04,Wunderground v.1.15,2013-03-18 14:35:00,
2013-03-18 10:40:00,38.3,37.5,30.17,NE,46,0.0,0.0,97,0.00,,,0.04,Wunderground v.1.15,2013-03-18 14:40:00,
2013-03-18 10:45:00,38.5,37.7,30.17,NE,44,0.0,0.0,97,0.00,,,0.04,Wunderground v.1.15,2013-03-18 14:45:00,
2013-03-18 10:55:00,38.7,37.9,30.17,East,80,0.0,1.0,97,0.00,,,0.04,Wunderground v.1.15,2013-03-18 14:55:00,
2013-03-18 11:00:00,38.7,37.9,30.16,East,82,0.0,0.0,97,0.00,,,0.04,Wunderground v.1.15,2013-03-18 15:00:00,
2013-03-18 11:05:00,38.8,38.0,30.15,East,84,0.0,0.0,97,0.00,,,0.04,Wunderground v.1.15,2013-03-18 15:05:00,
2013-03-18 11:15:00,39.1,38.3,30.16,NE,47,0.0,0.0,97,0.00,,,0.04,Wunderground v.1.15,2013-03-18 15:15:00,
2013-03-18 11:20:00,39.2,38.4,30.16,WNW,286,0.0,1.0,97,0.00,,,0.04,Wunderground v.1.15,2013-03-18 15:20:00,
2013-03-18 11:30:00,39.3,38.5,30.15,NNE,22,0.0,0.0,97,0.00,,,0.04,Wunderground v.1.15,2013-03-18 15:30:00,
2013-03-18 11:35:00,39.4,38.6,30.15,NNE,22,0.0,0.0,97,0.00,,,0.04,Wunderground v.1.15,2013-03-18 15:35:00,
2013-03-18 11:40:00,39.3,38.5,30.15,WNW,298,0.0,0.0,97,0.00,,,0.04,Wunderground v.1.15,2013-03-18 15:40:00,
2013-03-18 11:45:00,39.5,38.7,30.15,NW,314,0.0,0.0,97,0.00,,,0.04,Wunderground v.1.15,2013-03-18 15:45:00,
2013-03-18 11:50:00,39.6,38.8,30.16,WNW,295,0.0,0.0,97,0.00,,,0.04,Wunderground v.1.15,2013-03-18 15:50:00,
2013-03-18 11:55:00,39.7,38.9,30.16,WNW,295,0.0,0.0,97,0.00,,,0.04,Wunderground v.1.15,2013-03-18 15:55:00,
2013-03-18 12:05:00,39.7,38.9,30.16,WNW,295,0.0,0.0,97,0.00,,,0.04,Wunderground v.1.15,2013-03-18 16:05:00,
2013-03-18 12:15:00,39.8,39.0,30.16,WNW,302,0.0,0.0,97,0.00,,,0.04,Wunderground v.1.15,2013-03-18 16:15:00,
2013-03-18 12:20:00,39.9,39.1,30.16,WNW,302,0.0,0.0,97,0.00,,,0.04,Wunderground v.1.15,2013-03-18 16:20:00,
2013-03-18 12:30:00,40.0,39.2,30.16,NW,304,0.0,0.0,97,0.00,,,0.04,Wunderground v.1.15,2013-03-18 16:30:00,
2013-03-18 12:35:00,40.1,39.3,30.15,NW,304,0.0,0.0,97,0.00,,,0.04,Wunderground v.1.15,2013-03-18 16:35:00,
2013-03-18 12:40:00,40.2,39.4,30.15,NW,304,0.0,0.0,97,0.00,,,0.04,Wunderground v.1.15,2013-03-18 16:40:00,
2013-03-18 12:50:00,40.1,39.3,30.14,WNW,286,1.0,1.0,97,0.00,,,0.04,Wunderground v.1.15,2013-03-18 16:50:00,
2013-03-18 12:55:00,40.2,39.4,30.14,WNW,286,0.0,1.0,97,0.00,,,0.04,Wunderground v.1.15,2013-03-18 16:55:00,
2013-03-18 13:00:00,40.3,39.5,30.14,WNW,286,0.0,0.0,97,0.00,,,0.04,Wunderground v.1.15,2013-03-18 17:00:00,
2013-03-18 13:05:00,40.4,39.6,30.13,WNW,287,0.0,1.0,97,0.00,,,0.04,Wunderground v.1.15,2013-03-18 17:05:00,
2013-03-18 13:15:00,40.7,39.9,30.12,WNW,288,0.0,0.0,97,0.00,,,0.04,Wunderground v.1.15,2013-03-18 17:15:00,
2013-03-18 13:20:00,40.8,40.0,30.12,WNW,287,0.0,0.0,97,0.00,,,0.04,Wunderground v.1.15,2013-03-18 17:20:00,
2013-03-18 13:25:00,40.9,40.1,30.12,WNW,287,0.0,0.0,97,0.00,,,0.04,Wunderground v.1.15,2013-03-18 17:25:00,
2013-03-18 13:30:00,41.0,40.2,30.12,WNW,287,0.0,0.0,97,0.00,,,0.04,Wunderground v.1.15,2013-03-18 17:30:00,
2013-03-18 13:40:00,41.1,40.3,30.13,West,280,0.0,2.0,97,0.00,,,0.04,Wunderground v.1.15,2013-03-18 17:40:00,
2013-03-18 13:45:00,41.1,40.3,30.13,WNW,291,0.0,2.0,97,0.00,,,0.04,Wunderground v.1.15,2013-03-18 17:45:00,
2013-03-18 13:50:00,41.1,40.3,30.13,WNW,291,0.0,0.0,97,0.00,,,0.04,Wunderground v.1.15,2013-03-18 17:50:00,
2013-03-18 14:00:00,41.1,40.3,30.12,WNW,290,0.0,0.0,97,0.00,,,0.04,Wunderground v.1.15,2013-03-18 18:00:00,
2013-03-18 14:05:00,41.1,40.3,30.11,WNW,290,0.0,0.0,97,0.00,,,0.04,Wunderground v.1.15,2013-03-18 18:05:00,
2013-03-18 14:15:00,41.2,40.4,30.10,WNW,293,0.0,0.0,97,0.00,,,0.04,Wunderground v.1.15,2013-03-18 18:15:00,
2013-03-18 14:20:00,41.3,40.5,30.10,WNW,293,0.0,0.0,97,0.00,,,0.04,Wunderground v.1.15,2013-03-18 18:20:00,
2013-03-18 14:25:00,41.2,40.4,30.09,WNW,293,0.0,0.0,97,0.00,,,0.04,Wunderground v.1.15,2013-03-18 18:25:00,
2013-03-18 14:30:00,41.3,40.5,30.09,WNW,293,0.0,0.0,97,0.00,,,0.04,Wunderground v.1.15,2013-03-18 18:30:00,
2013-03-18 14:35:00,41.4,40.6,30.08,WNW,293,0.0,0.0,97,0.00,,,0.04,Wunderground v.1.15,2013-03-18 18:35:00,
2013-03-18 14:40:00,41.4,40.6,30.08,WNW,293,0.0,0.0,97,0.00,,,0.04,Wunderground v.1.15,2013-03-18 18:40:00,
2013-03-18 14:50:00,41.6,40.8,30.07,WNW,293,0.0,0.0,97,0.00,,,0.04,Wunderground v.1.15,2013-03-18 18:50:00,
2013-03-18 14:55:00,41.7,40.9,30.05,WNW,293,0.0,0.0,97,0.00,,,0.04,Wunderground v.1.15,2013-03-18 18:55:00,
2013-03-18 15:00:00,41.9,41.1,30.05,WNW,294,0.0,0.0,97,0.00,,,0.04,Wunderground v.1.15,2013-03-18 19:00:00,
2013-03-18 15:05:00,42.0,41.2,30.05,NW,309,0.0,0.0,97,0.00,,,0.04,Wunderground v.1.15,2013-03-18 19:05:00,
2013-03-18 15:15:00,42.0,41.2,30.05,NW,310,0.0,0.0,97,0.00,,,0.04,Wunderground v.1.15,2013-03-18 19:15:00,
2013-03-18 15:25:00,41.9,41.1,30.05,East,88,0.0,0.0,97,0.00,,,0.04,Wunderground v.1.15,2013-03-18 19:25:00,
2013-03-18 15:30:00,41.8,41.0,30.04,East,88,0.0,0.0,97,0.00,,,0.04,Wunderground v.1.15,2013-03-18 19:30:00,
2013-03-18 15:35:00,41.8,41.0,30.04,East,88,0.0,0.0,97,0.00,,,0.04,Wunderground v.1.15,2013-03-18 19:35:00,
2013-03-18 15:40:00,41.8,41.0,30.04,WNW,298,0.0,0.0,97,0.00,,,0.04,Wunderground v.1.15,2013-03-18 19:40:00,
2013-03-18 15:45:00,41.9,41.1,30.03,WNW,298,0.0,0.0,97,0.00,,,0.04,Wunderground v.1.15,2013-03-18 19:45:00,
2013-03-18 15:50:00,42.1,41.3,30.03,WNW,293,0.0,-999.0,97,0.00,,,0.23,Wunderground v.1.15,2013-03-18 19:50:00,
2013-03-18 15:55:00,42.2,41.4,30.02,N/A,-737280,0.0,-999.0,97,0.00,,,0.23,Wunderground v.1.15,2013-03-18 19:55:00,
2013-03-18 16:00:00,42.1,41.3,30.02,WNW,293,0.0,-999.0,97,0.00,,,0.23,Wunderground v.1.15,2013-03-18 20:00:00,
2013-03-18 16:05:00,42.1,41.3,30.03,N/A,-737280,0.0,-999.0,97,0.00,,,0.23,Wunderground v.1.15,2013-03-18 20:05:00,
2013-03-18 16:10:00,42.1,41.3,30.03,WNW,293,0.0,-999.0,97,0.00,,,0.23,Wunderground v.1.15,2013-03-18 20:10:00,
2013-03-18 16:15:00,42.0,41.2,30.02,N/A,-737280,0.0,-999.0,97,0.00,,,0.23,Wunderground v.1.15,2013-03-18 20:15:00,
2013-03-18 16:20:00,42.1,41.3,30.03,WNW,293,0.0,-999.0,97,0.00,,,0.23,Wunderground v.1.15,2013-03-18 20:20:00,
2013-03-18 16:25:00,42.1,41.3,30.03,WNW,293,0.0,-999.0,97,0.00,,,0.23,Wunderground v.1.15,2013-03-18 20:25:00,
2013-03-18 16:30:00,42.1,41.3,30.03,N/A,-737280,0.0,-999.0,97,0.00,,,0.23,Wunderground v.1.15,2013-03-18 20:30:00,
2013-03-18 16:35:00,42.2,41.4,30.03,N/A,-737280,0.0,-999.0,97,0.00,,,0.23,Wunderground v.1.15,2013-03-18 20:35:00,
2013-03-18 16:40:00,42.3,41.5,30.03,N/A,-737280,0.0,-999.0,97,0.00,,,0.23,Wunderground v.1.15,2013-03-18 20:40:00,
2013-03-18 16:45:00,42.2,41.4,30.03,N/A,-737280,0.0,-999.0,97,0.00,,,0.23,Wunderground v.1.15,2013-03-18 20:45:00,
2013-03-18 16:50:00,42.3,41.5,30.02,N/A,-737280,0.0,-999.0,97,0.00,,,0.23,Wunderground v.1.15,2013-03-18 20:50:00,
2013-03-18 16:55:00,42.3,41.5,30.01,N/A,-737280,0.0,-999.0,97,0.00,,,0.23,Wunderground v.1.15,2013-03-18 20:55:00,
2013-03-18 17:00:00,42.4,41.6,30.01,N/A,-737280,0.0,-999.0,97,0.00,,,0.23,Wunderground v.1.15,2013-03-18 21:00:00,
2013-03-18 17:05:00,42.4,41.6,30.01,N/A,-737280,0.0,-999.0,97,0.00,,,0.23,Wunderground v.1.15,2013-03-18 21:05:00,
2013-03-18 17:10:00,42.4,41.6,30.01,N/A,-737280,0.0,-999.0,97,0.00,,,0.23,Wunderground v.1.15,2013-03-18 21:10:00,
2013-03-18 17:15:00,42.4,41.6,30.01,N/A,-737280,0.0,-999.0,97,0.00,,,0.23,Wunderground v.1.15,2013-03-18 21:15:00,
2013-03-18 17:20:00,42.5,41.7,30.01,N/A,-737280,0.0,-999.0,97,0.00,,,0.23,Wunderground v.1.15,2013-03-18 21:20:00,
2013-03-18 17:25:00,42.5,41.7,30.02,WNW,293,0.0,-999.0,97,0.00,,,0.23,Wunderground v.1.15,2013-03-18 21:25:00,
2013-03-18 17:30:00,42.4,41.6,30.01,N/A,-737280,0.0,-999.0,97,0.00,,,0.23,Wunderground v.1.15,2013-03-18 21:30:00,
2013-03-18 17:35:00,42.4,41.6,30.02,WNW,293,0.0,-999.0,97,0.00,,,0.23,Wunderground v.1.15,2013-03-18 21:35:00,
2013-03-18 17:40:00,42.4,41.6,30.01,WNW,293,0.0,-999.0,97,0.00,,,0.23,Wunderground v.1.15,2013-03-18 21:40:00,
2013-03-18 17:45:00,42.4,41.6,30.01,N/A,-737280,0.0,-999.0,97,0.00,,,0.23,Wunderground v.1.15,2013-03-18 21:45:00,
2013-03-18 17:50:00,42.4,41.6,30.01,NW,315,0.0,-999.0,97,0.00,,,0.23,Wunderground v.1.15,2013-03-18 21:50:00,
2013-03-18 17:55:00,42.4,41.6,30.01,NW,315,0.0,-999.0,97,0.00,,,0.23,Wunderground v.1.15,2013-03-18 21:55:00,
2013-03-18 18:00:00,42.3,41.5,30.00,N/A,-737280,0.0,-999.0,97,0.00,,,0.23,Wunderground v.1.15,2013-03-18 22:00:00,
2013-03-18 18:05:00,42.3,41.5,30.00,N/A,-737280,0.0,-999.0,97,0.00,,,0.23,Wunderground v.1.15,2013-03-18 22:05:00,
2013-03-18 18:10:00,42.3,41.5,30.00,N/A,-737280,0.0,-999.0,97,0.00,,,0.23,Wunderground v.1.15,2013-03-18 22:10:00,
2013-03-18 18:15:00,42.3,41.5,30.00,N/A,-737280,0.0,-999.0,97,0.00,,,0.23,Wunderground v.1.15,2013-03-18 22:15:00,
2013-03-18 18:20:00,42.3,41.5,30.01,N/A,-737280,0.0,-999.0,97,0.00,,,0.23,Wunderground v.1.15,2013-03-18 22:20:00,
2013-03-18 18:25:00,42.3,41.5,30.01,N/A,-737280,0.0,-999.0,97,0.00,,,0.23,Wunderground v.1.15,2013-03-18 22:25:00,
2013-03-18 18:30:00,42.3,41.5,30.02,N/A,-737280,0.0,-999.0,97,0.00,,,0.23,Wunderground v.1.15,2013-03-18 22:30:00,
2013-03-18 18:35:00,42.3,41.5,30.02,NW,315,0.0,-999.0,97,0.00,,,0.23,Wunderground v.1.15,2013-03-18 22:35:00,
2013-03-18 18:40:00,42.3,41.5,30.02,NW,315,0.0,-999.0,97,0.00,,,0.23,Wunderground v.1.15,2013-03-18 22:40:00,
2013-03-18 18:45:00,42.3,41.5,30.02,NW,315,0.0,-999.0,97,0.00,,,0.23,Wunderground v.1.15,2013-03-18 22:45:00,
2013-03-18 18:50:00,42.2,41.4,30.01,NW,315,0.0,-999.0,97,0.00,,,0.23,Wunderground v.1.15,2013-03-18 22:50:00,
2013-03-18 18:55:00,42.2,41.4,30.01,NW,315,0.0,-999.0,97,0.00,,,0.23,Wunderground v.1.15,2013-03-18 22:55:00,
2013-03-18 19:00:00,42.2,41.4,30.00,N/A,-737280,0.0,-999.0,97,0.00,,,0.23,Wunderground v.1.15,2013-03-18 23:00:00,
2013-03-18 19:05:00,42.2,41.4,30.00,NW,315,0.0,-999.0,97,0.00,,,0.23,Wunderground v.1.15,2013-03-18 23:05:00,
2013-03-18 19:10:00,42.1,41.3,29.99,WNW,293,0.0,-999.0,97,0.00,,,0.23,Wunderground v.1.15,2013-03-18 23:10:00,
2013-03-18 19:15:00,42.1,41.3,30.00,N/A,-737280,0.0,-999.0,97,0.00,,,0.23,Wunderground v.1.15,2013-03-18 23:15:00,
2013-03-18 19:20:00,42.2,41.4,30.00,NW,315,0.0,-999.0,97,0.00,,,0.23,Wunderground v.1.15,2013-03-18 23:20:00,
2013-03-18 19:25:00,42.1,41.3,30.00,WSW,248,0.0,-999.0,97,0.00,,,0.23,Wunderground v.1.15,2013-03-18 23:25:00,
2013-03-18 19:30:00,42.1,41.3,30.00,N/A,-737280,0.0,-999.0,97,0.00,,,0.23,Wunderground v.1.15,2013-03-18 23:30:00,
2013-03-18 19:35:00,42.1,41.3,30.00,WNW,293,0.0,-999.0,97,0.00,,,0.23,Wunderground v.1.15,2013-03-18 23:35:00,
2013-03-18 19:40:00,42.1,41.3,30.00,WNW,293,0.0,-999.0,97,0.00,,,0.23,Wunderground v.1.15,2013-03-18 23:40:00,
2013-03-18 19:45:00,42.1,41.6,30.00,N/A,-737280,0.0,-999.0,98,0.00,,,0.23,Wunderground v.1.15,2013-03-18 23:45:00,
2013-03-18 19:50:00,42.1,41.6,29.99,WNW,293,0.0,-999.0,98,0.00,,,0.23,Wunderground v.1.15,2013-03-18 23:50:00,
2013-03-18 19:55:00,42.1,41.6,29.99,N/A,-737280,0.0,-999.0,98,0.00,,,0.23,Wunderground v.1.15,2013-03-18 23:55:00,
2013-03-18 20:00:00,42.1,41.6,29.99,WNW,293,0.0,-999.0,98,0.00,,,0.23,Wunderground v.1.15,2013-03-19 00:00:00,
2013-03-18 20:05:00,42.1,41.3,29.99,WNW,293,0.0,-999.0,97,0.00,,,0.23,Wunderground v.1.15,2013-03-19 00:05:00,
2013-03-18 20:10:00,42.1,41.3,29.99,WNW,293,0.0,-999.0,97,0.00,,,0.23,Wunderground v.1.15,2013-03-19 00:10:00,
2013-03-18 20:15:00,42.0,41.2,29.99,North,0,0.0,-999.0,97,0.00,,,0.23,Wunderground v.1.15,2013-03-19 00:15:00,
2013-03-18 20:20:00,42.0,41.2,29.99,NNE,23,0.0,-999.0,97,0.00,,,0.23,Wunderground v.1.15,2013-03-19 00:20:00,
2013-03-18 20:25:00,41.9,41.1,29.98,NNW,338,0.0,-999.0,97,0.00,,,0.23,Wunderground v.1.15,2013-03-19 00:25:00,
2013-03-18 20:30:00,41.9,41.1,29.98,N/A,-737280,0.0,-999.0,97,0.00,,,0.23,Wunderground v.1.15,2013-03-19 00:30:00,
2013-03-18 20:35:00,41.9,41.4,29.99,N/A,-737280,0.0,-999.0,98,0.00,,,0.23,Wunderground v.1.15,2013-03-19 00:35:00,
2013-03-18 20:40:00,41.9,41.4,29.97,N/A,-737280,0.0,-999.0,98,0.00,,,0.23,Wunderground v.1.15,2013-03-19 00:40:00,
2013-03-18 20:45:00,41.9,41.4,29.98,NNW,338,0.0,-999.0,98,0.00,,,0.23,Wunderground v.1.15,2013-03-19 00:45:00,
2013-03-18 20:50:00,41.9,41.4,29.99,NNW,338,0.0,-999.0,98,0.00,,,0.23,Wunderground v.1.15,2013-03-19 00:50:00,
2013-03-18 20:55:00,41.9,41.4,30.00,West,270,0.0,-999.0,98,0.00,,,0.23,Wunderground v.1.15,2013-03-19 00:55:00,
2013-03-18 21:00:00,41.9,41.4,30.01,WNW,293,0.0,-999.0,98,0.00,,,0.23,Wunderground v.1.15,2013-03-19 01:00:00,
2013-03-18 21:05:00,41.9,41.4,30.02,NW,315,0.0,-999.0,98,0.00,,,0.23,Wunderground v.1.15,2013-03-19 01:05:00,
2013-03-18 21:10:00,41.9,41.4,30.03,NW,315,0.0,-999.0,98,0.01,,,0.23,Wunderground v.1.15,2013-03-19 01:10:00,
2013-03-18 21:15:00,41.8,41.3,30.05,WNW,293,1.0,-999.0,98,0.02,,,0.23,Wunderground v.1.15,2013-03-19 01:15:00,
2013-03-18 21:20:00,41.8,41.3,30.05,WNW,293,2.0,-999.0,98,0.03,,,0.23,Wunderground v.1.15,2013-03-19 01:20:00,
2013-03-18 21:25:00,41.7,41.2,30.03,NW,315,1.0,-999.0,98,0.04,,,0.23,Wunderground v.1.15,2013-03-19 01:25:00,
2013-03-18 21:30:00,41.6,41.1,30.01,WNW,293,0.0,-999.0,98,0.04,,,0.23,Wunderground v.1.15,2013-03-19 01:30:00,
2013-03-18 21:35:00,41.5,41.0,29.99,N/A,-737280,0.0,-999.0,98,0.04,,,0.23,Wunderground v.1.15,2013-03-19 01:35:00,
2013-03-18 21:40:00,41.4,40.9,29.98,N/A,-737280,0.0,-999.0,98,0.05,,,0.23,Wunderground v.1.15,2013-03-19 01:40:00,
2013-03-18 21:45:00,41.3,40.8,29.98,N/A,-737280,0.0,-999.0,98,0.06,,,0.23,Wunderground v.1.15,2013-03-19 01:45:00,
2013-03-18 21:50:00,41.3,40.8,29.98,WNW,293,0.0,-999.0,98,0.07,,,0.23,Wunderground v.1.15,2013-03-19 01:50:00,
2013-03-18 21:55:00,41.3,40.8,29.98,N/A,-737280,0.0,-999.0,98,0.08,,,0.23,Wunderground v.1.15,2013-03-19 01:55:00,
2013-03-18 22:00:00,41.3,40.8,29.97,N/A,-737280,0.0,-999.0,98,0.10,,,0.23,Wunderground v.1.15,2013-03-19 02:00:00,
2013-03-18 22:05:00,41.2,40.7,29.97,N/A,-737280,0.0,-999.0,98,0.12,,,0.23,Wunderground v.1.15,2013-03-19 02:05:00,
2013-03-18 22:10:00,41.2,40.7,29.97,N/A,-737280,0.0,-999.0,98,0.12,,,0.23,Wunderground v.1.15,2013-03-19 02:10:00,
2013-03-18 22:15:00,41.2,40.7,29.98,WNW,293,0.0,-999.0,98,0.12,,,0.23,Wunderground v.1.15,2013-03-19 02:15:00,
2013-03-18 22:20:00,41.1,40.6,29.98,N/A,-737280,0.0,-999.0,98,0.11,,,0.23,Wunderground v.1.15,2013-03-19 02:20:00,
2013-03-18 22:25:00,41.1,40.6,29.97,N/A,-737280,0.0,-999.0,98,0.11,,,0.23,Wunderground v.1.15,2013-03-19 02:25:00,
2013-03-18 22:30:00,41.1,40.6,29.97,N/A,-737280,0.0,-999.0,98,0.11,,,0.23,Wunderground v.1.15,2013-03-19 02:30:00,
2013-03-18 22:35:00,41.1,40.6,29.97,N/A,-737280,0.0,-999.0,98,0.11,,,0.23,Wunderground v.1.15,2013-03-19 02:35:00,
2013-03-18 22:40:00,41.0,40.5,29.98,WNW,293,0.0,-999.0,98,0.10,,,0.23,Wunderground v.1.15,2013-03-19 02:40:00,
2013-03-18 22:45:00,40.9,40.4,29.98,West,270,0.0,-999.0,98,0.09,,,0.23,Wunderground v.1.15,2013-03-19 02:45:00,
2013-03-18 22:50:00,40.9,40.4,29.97,West,270,0.0,-999.0,98,0.08,,,0.23,Wunderground v.1.15,2013-03-19 02:50:00,
2013-03-18 22:55:00,40.8,40.3,29.96,N/A,-737280,0.0,-999.0,98,0.07,,,0.23,Wunderground v.1.15,2013-03-19 02:55:00,
2013-03-18 23:00:00,40.8,40.3,29.96,N/A,-737280,0.0,-999.0,98,0.05,,,0.23,Wunderground v.1.15,2013-03-19 03:00:00,
2013-03-18 23:05:00,40.8,40.3,29.95,N/A,-737280,0.0,-999.0,98,0.03,,,0.23,Wunderground v.1.15,2013-03-19 03:05:00,
2013-03-18 23:10:00,40.7,40.2,29.94,N/A,-737280,0.0,-999.0,98,0.02,,,0.23,Wunderground v.1.15,2013-03-19 03:10:00,
2013-03-18 23:15:00,40.8,40.3,29.94,N/A,-737280,0.0,-999.0,98,0.02,,,0.23,Wunderground v.1.15,2013-03-19 03:15:00,
2013-03-18 23:20:00,40.8,40.3,29.93,N/A,-737280,0.0,-999.0,98,0.03,,,0.23,Wunderground v.1.15,2013-03-19 03:20:00,
2013-03-18 23:25:00,40.8,40.3,29.93,N/A,-737280,0.0,-999.0,98,0.03,,,0.23,Wunderground v.1.15,2013-03-19 03:25:00,
2013-03-18 23:30:00,40.7,40.2,29.92,N/A,-737280,0.0,-999.0,98,0.03,,,0.23,Wunderground v.1.15,2013-03-19 03:30:00,
2013-03-18 23:35:00,40.7,40.2,29.92,N/A,-737280,0.0,-999.0,98,0.04,,,0.23,Wunderground v.1.15,2013-03-19 03:35:00,
2013-03-18 23:40:00,40.7,40.2,29.92,N/A,-737280,0.0,-999.0,98,0.04,,,0.23,Wunderground v.1.15,2013-03-19 03:40:00,
2013-03-18 23:45:00,40.7,40.2,29.90,N/A,-737280,0.0,-999.0,98,0.04,,,0.23,Wunderground v.1.15,2013-03-19 03:45:00,
2013-03-18 23:50:00,40.7,40.2,29.89,West,270,0.0,-999.0,98,0.04,,,0.23,Wunderground v.1.15,2013-03-19 03:50:00,
2013-03-18 23:55:00,40.7,40.2,29.89,N/A,-737280,0.0,-999.0,98,0.04,,,0.23,Wunderground v.1.15,2013-03-19 03:55:00,